Location: Wolf Lake
(46.8518°N, 80.6381°W)
Time: 10:53:39
(UTC-04:00)

ISS - Pass Details

Date: 15 March 2026
Orbit: 416 x 425 km, 51.6° (Epoch: 19 April)

Event Time Altitude Azimuth Distance (km) Brightness Sun altitude
Rises 22:32:00 0° 284° (WNW) 2,385 1.1 -30.5°
Reaches altitude 10° 22:34:14 10° 293° (WNW) 1,517 -0.1 -30.8°
Enters shadow 22:34:47 14° 298° (WNW) 1,320 -0.4 -30.9°
